HVN143 VVPQ-VVTS

Flight info

Callsign HVN143
Flight time 0h 39m
Altitude 23000
Route PQU W8 RG W16 TRN DCT ENPAS ENPAS7D
Aircraft A21N/M-SDE2E3FGHIRWXY/LB1

Departure

Time 2026-05-07 15:16
Airport Phú Quốc International Airport (VVPQ)

Arrival

Time 2026-05-07 15:55
Airport Tan Son Nhat International Airport (VVTS)
Time Latitude Longitude Altitude Speed Heading
2026-05-07 14:37 10.16425 103.99716 32 ft 0 kts 185°
2026-05-07 15:01 10.16430 103.99717 32 ft 2 kts 186°
2026-05-07 15:01 10.16445 103.99719 32 ft 2 kts 185°
2026-05-07 15:02 10.16460 103.99720 32 ft 2 kts 186°
2026-05-07 15:02 10.16475 103.99721 32 ft 2 kts 185°
2026-05-07 15:02 10.16489 103.99723 32 ft 2 kts 186°
2026-05-07 15:02 10.16502 103.99724 32 ft 0 kts 186°
2026-05-07 15:03 10.16513 103.99724 32 ft 2 kts 149°
2026-05-07 15:03 10.16522 103.99712 32 ft 1 kts 102°
2026-05-07 15:03 10.16523 103.99706 32 ft 1 kts 93°
2026-05-07 15:03 10.16523 103.99703 32 ft 0 kts 95°
2026-05-07 15:06 10.16522 103.99711 32 ft 7 kts 96°
2026-05-07 15:06 10.16514 103.99779 32 ft 10 kts 97°
2026-05-07 15:07 10.16534 103.99842 32 ft 10 kts 29°
2026-05-07 15:07 10.16604 103.99853 32 ft 10 kts
2026-05-07 15:07 10.16676 103.99860 32 ft 10 kts
2026-05-07 15:07 10.16743 103.99882 32 ft 10 kts 51°
2026-05-07 15:08 10.16746 103.99957 32 ft 10 kts 96°
2026-05-07 15:08 10.16738 104.00032 32 ft 10 kts 96°
2026-05-07 15:08 10.16731 104.00108 32 ft 11 kts 96°
2026-05-07 15:08 10.16723 104.00187 32 ft 11 kts 96°
2026-05-07 15:09 10.16715 104.00266 32 ft 11 kts 96°
2026-05-07 15:09 10.16707 104.00346 32 ft 11 kts 96°
2026-05-07 15:09 10.16699 104.00425 32 ft 11 kts 96°
2026-05-07 15:09 10.16690 104.00507 32 ft 11 kts 95°
2026-05-07 15:10 10.16683 104.00587 32 ft 11 kts 95°
2026-05-07 15:10 10.16686 104.00633 32 ft 2 kts 84°
2026-05-07 15:10 10.16685 104.00653 32 ft 3 kts 97°
2026-05-07 15:10 10.16682 104.00677 32 ft 3 kts 94°
2026-05-07 15:11 10.16686 104.00704 32 ft 4 kts 71°
2026-05-07 15:11 10.16709 104.00733 32 ft 6 kts 29°
2026-05-07 15:11 10.16751 104.00735 32 ft 6 kts 351°
2026-05-07 15:11 10.16797 104.00726 31 ft 6 kts 342°
2026-05-07 15:12 10.16839 104.00697 32 ft 7 kts 311°
2026-05-07 15:12 10.16854 104.00648 32 ft 7 kts 275°
2026-05-07 15:12 10.16856 104.00626 32 ft 0 kts 275°
2026-05-07 15:15 10.16858 104.00607 32 ft 17 kts 275°
2026-05-07 15:15 10.16896 104.00223 32 ft 92 kts 275°
2026-05-07 15:15 10.16983 103.99331 32 ft 160 kts 276°
2026-05-07 15:16 10.17105 103.98106 460 ft 179 kts 275°
2026-05-07 15:16 10.17205 103.96873 1042 ft 175 kts 274°
2026-05-07 15:16 10.17294 103.95653 1600 ft 175 kts 271°
2026-05-07 15:16 10.17032 103.94434 1984 ft 185 kts 244°
2026-05-07 15:17 10.16330 103.93285 2295 ft 200 kts 232°
2026-05-07 15:17 10.15269 103.92311 2586 ft 216 kts 207°
2026-05-07 15:17 10.13767 103.92047 2936 ft 227 kts 173°
2026-05-07 15:17 10.12339 103.92684 3417 ft 233 kts 140°
2026-05-07 15:18 10.11364 103.94073 3695 ft 254 kts 108°
2026-05-07 15:18 10.11220 103.95865 4332 ft 258 kts 78°
2026-05-07 15:18 10.11808 103.97567 5088 ft 258 kts 60°
2026-05-07 15:18 10.12795 103.99083 5790 ft 261 kts 52°
2026-05-07 15:19 10.13909 104.00555 6290 ft 272 kts 52°
2026-05-07 15:19 10.15029 104.02127 6912 ft 279 kts 57°
2026-05-07 15:19 10.15978 104.03848 7646 ft 281 kts 62°
2026-05-07 15:19 10.16845 104.05640 8351 ft 284 kts 63°
2026-05-07 15:20 10.17612 104.07491 8997 ft 289 kts 75°
2026-05-07 15:20 10.17695 104.09527 9543 ft 297 kts 98°
2026-05-07 15:20 10.17221 104.11565 10140 ft 301 kts 105°
2026-05-07 15:20 10.16659 104.13660 10505 ft 313 kts 102°
2026-05-07 15:21 10.16193 104.15874 10776 ft 328 kts 100°
2026-05-07 15:21 10.15734 104.18203 11042 ft 343 kts 100°
2026-05-07 15:21 10.15253 104.20633 11297 ft 357 kts 100°
2026-05-07 15:21 10.14747 104.23137 11592 ft 369 kts 101°
2026-05-07 15:22 10.14217 104.25732 12105 ft 374 kts 101°
2026-05-07 15:22 10.13687 104.28297 12681 ft 376 kts 101°
2026-05-07 15:22 10.13143 104.30924 13260 ft 378 kts 101°
2026-05-07 15:22 10.12602 104.33533 13814 ft 381 kts 101°
2026-05-07 15:23 10.12060 104.36143 14357 ft 383 kts 101°
2026-05-07 15:23 10.11509 104.38797 14897 ft 385 kts 101°
2026-05-07 15:23 10.10959 104.41442 15421 ft 388 kts 101°
2026-05-07 15:23 10.10402 104.44120 15936 ft 390 kts 101°
2026-05-07 15:24 10.09835 104.46846 16444 ft 392 kts 101°
2026-05-07 15:24 10.09271 104.49558 16932 ft 394 kts 101°
2026-05-07 15:24 10.08703 104.52282 17407 ft 396 kts 101°
2026-05-07 15:24 10.08135 104.55012 17872 ft 398 kts 101°
2026-05-07 15:25 10.07560 104.57773 18327 ft 401 kts 101°
2026-05-07 15:25 10.06985 104.60528 18764 ft 403 kts 101°
2026-05-07 15:25 10.06409 104.63291 19188 ft 405 kts 101°
2026-05-07 15:25 10.05899 104.65734 19545 ft 407 kts 101°
2026-05-07 15:26 10.05628 104.67033 19685 ft 409 kts 101°
2026-05-07 15:26 10.05099 104.69566 19939 ft 414 kts 101°
2026-05-07 15:26 10.04496 104.72447 20310 ft 416 kts 101°
2026-05-07 15:26 10.03896 104.75320 20706 ft 418 kts 101°
2026-05-07 15:27 10.03293 104.78204 21085 ft 419 kts 101°
2026-05-07 15:27 10.02683 104.81115 21450 ft 421 kts 101°
2026-05-07 15:27 10.02077 104.84011 21803 ft 423 kts 101°
2026-05-07 15:27 10.01465 104.86936 22151 ft 425 kts 101°
2026-05-07 15:28 10.00847 104.89886 22492 ft 427 kts 101°
2026-05-07 15:28 10.00225 104.92852 22791 ft 429 kts 101°
2026-05-07 15:28 9.99611 104.95779 22842 ft 429 kts 101°
2026-05-07 15:28 9.98990 104.98740 22845 ft 428 kts 101°
2026-05-07 15:29 9.98381 105.01678 22844 ft 429 kts 102°
2026-05-07 15:29 9.97775 105.04642 22847 ft 432 kts 103°
2026-05-07 15:29 9.97142 105.07650 22847 ft 433 kts 103°
2026-05-07 15:29 9.96619 105.10651 22845 ft 434 kts 98°
2026-05-07 15:30 9.96468 105.13708 22846 ft 436 kts 90°
2026-05-07 15:30 9.96716 105.16767 22847 ft 438 kts 82°
2026-05-07 15:30 9.97294 105.19807 22849 ft 438 kts 79°
2026-05-07 15:30 9.97961 105.22831 22848 ft 438 kts 78°
2026-05-07 15:31 9.98633 105.25813 22848 ft 438 kts 78°
2026-05-07 15:31 9.99306 105.28831 22848 ft 438 kts 78°
2026-05-07 15:31 9.99966 105.31831 22848 ft 438 kts 78°
2026-05-07 15:31 10.00631 105.34879 22848 ft 438 kts 78°
2026-05-07 15:32 10.01285 105.37893 22847 ft 438 kts 78°
2026-05-07 15:32 10.01933 105.40889 22848 ft 438 kts 78°
2026-05-07 15:32 10.02586 105.43907 22848 ft 438 kts 78°
2026-05-07 15:32 10.03239 105.46922 22848 ft 438 kts 78°
2026-05-07 15:33 10.03895 105.49947 22848 ft 438 kts 78°
2026-05-07 15:33 10.04547 105.52959 22848 ft 438 kts 78°
2026-05-07 15:33 10.05193 105.55947 22848 ft 438 kts 78°
2026-05-07 15:33 10.05849 105.58984 22848 ft 438 kts 78°
2026-05-07 15:34 10.06501 105.62001 22848 ft 438 kts 78°
2026-05-07 15:34 10.07157 105.65037 22848 ft 438 kts 79°
2026-05-07 15:34 10.07930 105.68001 22845 ft 439 kts 72°
2026-05-07 15:34 10.09117 105.70894 22846 ft 440 kts 64°
2026-05-07 15:35 10.10673 105.73541 22847 ft 441 kts 55°
2026-05-07 15:35 10.12534 105.76041 22849 ft 442 kts 52°
2026-05-07 15:35 10.14429 105.78446 22848 ft 442 kts 52°
2026-05-07 15:35 10.16369 105.80891 22848 ft 441 kts 52°
2026-05-07 15:36 10.18276 105.83304 22847 ft 441 kts 52°
2026-05-07 15:36 10.20201 105.85753 22847 ft 442 kts 52°
2026-05-07 15:36 10.22099 105.88178 22847 ft 441 kts 52°
2026-05-07 15:36 10.24004 105.90617 22847 ft 441 kts 52°
2026-05-07 15:37 10.25911 105.93062 22848 ft 441 kts 52°
2026-05-07 15:37 10.27797 105.95481 22835 ft 440 kts 52°
2026-05-07 15:37 10.29700 105.97924 22558 ft 435 kts 52°
2026-05-07 15:37 10.31557 106.00310 21948 ft 433 kts 52°
2026-05-07 15:38 10.33400 106.02679 21328 ft 432 kts 52°
2026-05-07 15:38 10.35260 106.05070 20788 ft 428 kts 52°
2026-05-07 15:38 10.37096 106.07430 20291 ft 423 kts 52°
2026-05-07 15:38 10.38899 106.09747 19692 ft 422 kts 51°
2026-05-07 15:39 10.40105 106.11297 19314 ft 420 kts 51°
2026-05-07 15:39 10.42498 106.14371 18593 ft 415 kts 51°
2026-05-07 15:39 10.44297 106.16682 18050 ft 412 kts 51°
2026-05-07 15:39 10.46058 106.18945 17516 ft 409 kts 51°
2026-05-07 15:40 10.47800 106.21185 16988 ft 406 kts 51°
2026-05-07 15:40 10.49554 106.23441 16455 ft 403 kts 51°
2026-05-07 15:40 10.51260 106.25636 15934 ft 400 kts 51°
2026-05-07 15:40 10.52980 106.27849 15411 ft 397 kts 51°
2026-05-07 15:41 10.54687 106.30047 14892 ft 394 kts 51°
2026-05-07 15:41 10.56365 106.32207 14378 ft 391 kts 51°
2026-05-07 15:41 10.58052 106.34380 13862 ft 388 kts 51°
2026-05-07 15:41 10.59703 106.36507 13355 ft 384 kts 50°
2026-05-07 15:42 10.61355 106.38635 12847 ft 381 kts 50°
2026-05-07 15:42 10.62979 106.40726 12431 ft 375 kts 50°
2026-05-07 15:42 10.64468 106.42857 12214 ft 365 kts 63°
2026-05-07 15:42 10.65104 106.45319 11985 ft 355 kts 89°
2026-05-07 15:43 10.64721 106.47730 11696 ft 347 kts 112°
2026-05-07 15:43 10.63537 106.49837 11265 ft 342 kts 127°
2026-05-07 15:43 10.62153 106.51778 10815 ft 341 kts 126°
2026-05-07 15:43 10.60885 106.53804 10370 ft 339 kts 120°
2026-05-07 15:44 10.59833 106.55936 9945 ft 337 kts 114°
2026-05-07 15:44 10.59011 106.58175 9528 ft 334 kts 108°
2026-05-07 15:44 10.58444 106.60417 9318 ft 325 kts 102°
2026-05-07 15:44 10.58103 106.62665 9132 ft 315 kts 97°
2026-05-07 15:45 10.57977 106.64838 8950 ft 306 kts 91°
2026-05-07 15:45 10.58045 106.66990 8734 ft 298 kts 86°
2026-05-07 15:45 10.58290 106.69064 8377 ft 296 kts 81°
2026-05-07 15:45 10.58715 106.71105 7988 ft 295 kts 76°
2026-05-07 15:46 10.60056 106.74999 7244 ft 292 kts 66°
2026-05-07 15:46 10.60959 106.76832 6881 ft 290 kts 62°
2026-05-07 15:46 10.62015 106.78590 6502 ft 288 kts 57°
2026-05-07 15:47 10.63182 106.80211 6134 ft 287 kts 52°
2026-05-07 15:47 10.64491 106.81741 5772 ft 285 kts 47°
2026-05-07 15:47 10.65907 106.83145 5398 ft 284 kts 42°
2026-05-07 15:47 10.67413 106.84408 5074 ft 281 kts 37°
2026-05-07 15:48 10.69036 106.85552 4946 ft 282 kts 33°
2026-05-07 15:48 10.70733 106.86552 4821 ft 282 kts 28°
2026-05-07 15:48 10.72494 106.87405 4696 ft 282 kts 23°
2026-05-07 15:48 10.74307 106.88105 4524 ft 279 kts 19°
2026-05-07 15:49 10.76176 106.88653 4384 ft 281 kts 14°
2026-05-07 15:49 10.78087 106.89043 4243 ft 279 kts
2026-05-07 15:49 10.79995 106.89272 4013 ft 276 kts
2026-05-07 15:49 10.81911 106.89342 4000 ft 278 kts 360°
2026-05-07 15:50 10.83858 106.89253 3983 ft 279 kts 355°
2026-05-07 15:50 10.85766 106.89011 3986 ft 278 kts 350°
2026-05-07 15:50 10.87577 106.88369 3974 ft 277 kts 325°
2026-05-07 15:50 10.88905 106.86983 3979 ft 275 kts 298°
2026-05-07 15:51 10.89476 106.85153 3813 ft 271 kts 271°
2026-05-07 15:51 10.89177 106.83282 3481 ft 267 kts 246°
2026-05-07 15:51 10.88407 106.81594 3118 ft 258 kts 242°
2026-05-07 15:51 10.87680 106.80012 2786 ft 239 kts 245°
2026-05-07 15:52 10.87077 106.78503 2487 ft 220 kts 246°
2026-05-07 15:52 10.86563 106.77121 2292 ft 197 kts 247°
2026-05-07 15:52 10.86089 106.75844 1953 ft 187 kts 246°
2026-05-07 15:52 10.85645 106.74661 1700 ft 169 kts 246°
2026-05-07 15:53 10.85249 106.73611 1477 ft 152 kts 246°
2026-05-07 15:53 10.84872 106.72619 1329 ft 149 kts 245°
2026-05-07 15:53 10.84497 106.71633 1110 ft 149 kts 246°
2026-05-07 15:53 10.84118 106.70629 937 ft 155 kts 246°
2026-05-07 15:54 10.83732 106.69606 679 ft 155 kts 247°
2026-05-07 15:54 10.83346 106.68587 498 ft 154 kts 245°
2026-05-07 15:54 10.82960 106.67566 304 ft 154 kts 247°
2026-05-07 15:54 10.82574 106.66552 117 ft 153 kts 247°
2026-05-07 15:55 10.82202 106.65559 31 ft 142 kts 246°
2026-05-07 15:55 10.81944 106.64885 30 ft 59 kts 251°
2026-05-07 15:55 10.81834 106.64671 28 ft 30 kts 224°
2026-05-07 15:55 10.81680 106.64536 28 ft 25 kts 223°
2026-05-07 15:56 10.81574 106.64371 25 ft 25 kts 247°
2026-05-07 15:56 10.81485 106.64313 25 ft 17 kts 161°
2026-05-07 15:56 10.81352 106.64362 25 ft 23 kts 159°
2026-05-07 15:56 10.81250 106.64417 25 ft 11 kts 114°
2026-05-07 15:57 10.81270 106.64507 25 ft 16 kts 68°
2026-05-07 15:57 10.81320 106.64638 25 ft 22 kts 69°
2026-05-07 15:57 10.81384 106.64806 25 ft 27 kts 69°
2026-05-07 15:57 10.81440 106.64952 25 ft 14 kts 69°
2026-05-07 15:58 10.81483 106.65068 26 ft 20 kts 70°
2026-05-07 15:58 10.81538 106.65215 28 ft 24 kts 68°
2026-05-07 15:58 10.81576 106.65314 28 ft 13 kts 69°
2026-05-07 15:58 10.81597 106.65374 28 ft 2 kts 70°
2026-05-07 15:59 10.81613 106.65415 28 ft 10 kts 69°
2026-05-07 15:59 10.81648 106.65505 28 ft 17 kts 69°
2026-05-07 15:59 10.81699 106.65636 28 ft 18 kts 70°
2026-05-07 15:59 10.81722 106.65730 28 ft 16 kts 93°
2026-05-07 16:00 10.81683 106.65862 28 ft 18 kts 97°
2026-05-07 16:00 10.81713 106.65981 28 ft 12 kts 69°
2026-05-07 16:00 10.81753 106.66085 28 ft 19 kts 69°
2026-05-07 16:00 10.81795 106.66198 28 ft 13 kts 69°
2026-05-07 16:01 10.81813 106.66256 28 ft 6 kts 90°
2026-05-07 16:01 10.81786 106.66290 28 ft 7 kts 160°
2026-05-07 16:01 10.81746 106.66305 28 ft 1 kts 160°
2026-05-07 16:01 10.81732 106.66310 28 ft 2 kts 160°
2026-05-07 16:02 10.81728 106.66312 28 ft 0 kts 160°
2026-05-07 16:02 10.81727 106.66312 28 ft 0 kts 160°